• în România
  • Lista ţărilor
  • Pe 7 zile
  • Temperatura apei
  • Hartă satelitară
  • Meteo pe hartă
  • Widget-uri
  • user-avatar
    Intrare

    Meteo pe oră la Prutz

    Astăzi, 21 Noiembrie, Marţi

    Timp Temperatura Precipitaţii Vânt Presiune Umiditate
    00:00 -3°C° 0 mm 2 m/s 632 mmHg 80%
    01:00 -1°C° 0 mm 2 m/s 632 mmHg 81%
    02:00 -1°C° 0,5 mm 2 m/s 632 mmHg 85%
    03:00 -1°C° 0,5 mm 2 m/s 632 mmHg 88%
    04:00 -1°C° 0,5 mm 2 m/s 632 mmHg 91%
    05:00 -1°C° 0,4 mm 2 m/s 632 mmHg 91%
    06:00 -1°C° 0,4 mm 2 m/s 632 mmHg 92%
    07:00 -1°C° 0,4 mm 2 m/s 632 mmHg 92%
    08:00 +1°C° 0,2 mm 2 m/s 633 mmHg 91%
    09:00 +2°C° 0,2 mm 2 m/s 633 mmHg 91%
    10:00 +2°C° 0,2 mm 2 m/s 633 mmHg 90%
    11:00 +3°C° 0,1 mm 2 m/s 633 mmHg 91%
    12:00 +4°C° 0,1 mm 2 m/s 633 mmHg 91%
    13:00 +4°C° 0,1 mm 2 m/s 633 mmHg 92%
    14:00 +4°C° 0,1 mm 2 m/s 633 mmHg 91%
    15:00 +3°C° 0,1 mm 2 m/s 633 mmHg 91%
    16:00 +3°C° 0,1 mm 2 m/s 632 mmHg 91%
    17:00 +2°C° 0 mm 2 m/s 632 mmHg 90%
    18:00 +1°C° 0 mm 2 m/s 632 mmHg 89%
    19:00 +1°C° 0 mm 2 m/s 632 mmHg 88%
    20:00 -1°C° 0 mm 2 m/s 632 mmHg 86%
    21:00 -1°C° 0 mm 2 m/s 632 mmHg 84%
    22:00 -1°C° 0 mm 2 m/s 632 mmHg 83%
    23:00 -1°C° 0 mm 2 m/s 632 mmHg 80%

    Mâine, 22 Noiembrie, Miercuri

    Timp Temperatura Precipitaţii Vânt Presiune Umiditate
    00:00 -1°C° 0 mm 2 m/s 632 mmHg 78%
    01:00 -1°C° 0 mm 2 m/s 632 mmHg 75%
    02:00 -1°C° 0 mm 2 m/s 632 mmHg 73%
    03:00 -1°C° 0 mm 2 m/s 632 mmHg 70%
    04:00 -2°C° 0 mm 2 m/s 631 mmHg 68%
    05:00 -2°C° 0 mm 2 m/s 631 mmHg 66%
    06:00 -2°C° 0 mm 2 m/s 631 mmHg 65%
    07:00 -2°C° 0 mm 2 m/s 631 mmHg 63%
    08:00 +1°C° 0 mm 2 m/s 632 mmHg 65%
    09:00 +2°C° 0 mm 2 m/s 632 mmHg 67%
    10:00 +4°C° 0 mm 2 m/s 633 mmHg 69%
    11:00 +5°C° 0 mm 2 m/s 633 mmHg 73%
    12:00 +6°C° 0 mm 2 m/s 633 mmHg 78%
    13:00 +7°C° 0 mm 2 m/s 633 mmHg 83%
    14:00 +6°C° 0 mm 2 m/s 633 mmHg 81%
    15:00 +4°C° 0 mm 2 m/s 632 mmHg 79%
    16:00 +3°C° 0 mm 2 m/s 632 mmHg 76%
    17:00 +2°C° 0 mm 2 m/s 631 mmHg 76%
    18:00 +1°C° 0 mm 2 m/s 631 mmHg 76%
    19:00 -1°C° 0 mm 3 m/s 631 mmHg 76%
    20:00 -1°C° 0 mm 3 m/s 631 mmHg 76%
    21:00 -1°C° 0 mm 3 m/s 631 mmHg 75%
    22:00 -1°C° 0 mm 3 m/s 631 mmHg 75%
    23:00 -1°C° 0 mm 3 m/s 631 mmHg 75%

    Poimâine, 23 Noiembrie, Joi

    Timp Temperatura Precipitaţii Vânt Presiune Umiditate
    00:00 -1°C° 0 mm 3 m/s 631 mmHg 76%
    01:00 -1°C° 0 mm 3 m/s 631 mmHg 76%
    02:00 -2°C° 0 mm 3 m/s 631 mmHg 75%
    03:00 -2°C° 0 mm 3 m/s 631 mmHg 75%
    04:00 -2°C° 0 mm 3 m/s 631 mmHg 75%
    05:00 -2°C° 0 mm 3 m/s 631 mmHg 74%
    06:00 -2°C° 0 mm 3 m/s 631 mmHg 73%
    07:00 -2°C° 0 mm 2 m/s 631 mmHg 72%
    08:00 -1°C° 0 mm 2 m/s 632 mmHg 71%
    09:00 +2°C° 0 mm 2 m/s 633 mmHg 71%
    10:00 +5°C° 0 mm 1 m/s 633 mmHg 71%
    11:00 +6°C° 0 mm 1 m/s 634 mmHg 74%
    12:00 +7°C° 0 mm 1 m/s 634 mmHg 78%
    13:00 +8°C° 0 mm 1 m/s 634 mmHg 81%
    14:00 +6°C° 0 mm 1 m/s 634 mmHg 78%
    15:00 +5°C° 0 mm 1 m/s 633 mmHg 75%
    16:00 +4°C° 0 mm 1 m/s 633 mmHg 71%
    17:00 +3°C° 0 mm 1 m/s 633 mmHg 70%
    18:00 +2°C° 0 mm 1 m/s 633 mmHg 69%
    19:00 +1°C° 0 mm 1 m/s 633 mmHg 68%
    20:00 +1°C° 0 mm 1 m/s 634 mmHg 67%
    21:00 +1°C° 0 mm 1 m/s 634 mmHg 65%
    22:00 +1°C° 0 mm 1 m/s 634 mmHg 64%
    23:00 -2°C° 0 mm 2 m/s 634 mmHg 64%

    24 Noiembrie, Vineri

    Timp Temperatura Precipitaţii Vânt Presiune Umiditate
    00:00 -2°C° 0 mm 2 m/s 634 mmHg 64%
    01:00 -2°C° 0 mm 2 m/s 634 mmHg 64%
    02:00 -2°C° 0 mm 2 m/s 634 mmHg 65%
    03:00 -2°C° 0 mm 2 m/s 634 mmHg 66%
    04:00 -2°C° 0 mm 2 m/s 634 mmHg 67%
    05:00 -2°C° 0 mm 2 m/s 634 mmHg 67%
    06:00 -1°C° 0 mm 2 m/s 634 mmHg 68%
    07:00 -1°C° 0 mm 3 m/s 634 mmHg 69%
    08:00 0°C° 0 mm 3 m/s 634 mmHg 69%
    09:00 +1°C° 0 mm 3 m/s 635 mmHg 70%
    10:00 +4°C° 0 mm 2 m/s 635 mmHg 70%
    11:00 +5°C° 0 mm 2 m/s 635 mmHg 72%
    12:00 +6°C° 0 mm 2 m/s 635 mmHg 74%
    13:00 +6°C° 0 mm 2 m/s 635 mmHg 76%
    14:00 +5°C° 0 mm 2 m/s 635 mmHg 77%
    15:00 +4°C° 0 mm 2 m/s 634 mmHg 77%
    16:00 +3°C° 0 mm 2 m/s 634 mmHg 77%
    17:00 +2°C° 0 mm 2 m/s 634 mmHg 76%
    18:00 +1°C° 0 mm 2 m/s 634 mmHg 75%
    19:00 -1°C° 0 mm 2 m/s 634 mmHg 73%
    20:00 -1°C° 0 mm 2 m/s 634 mmHg 72%
    21:00 +1°C° 0 mm 2 m/s 634 mmHg 70%
    22:00 +1°C° 0 mm 2 m/s 634 mmHg 69%
    23:00 +1°C° 0 mm 2 m/s 634 mmHg 69%

    25 Noiembrie, Sâmbătă

    Timp Temperatura Precipitaţii Vânt Presiune Umiditate
    00:00 +1°C° 0 mm 2 m/s 634 mmHg 69%
    01:00 +1°C° 0 mm 2 m/s 634 mmHg 69%
    02:00 +1°C° 0 mm 2 m/s 634 mmHg 70%
    03:00 +1°C° 0 mm 2 m/s 634 mmHg 71%
    04:00 0°C° 0 mm 3 m/s 633 mmHg 72%
    05:00 0°C° 0 mm 3 m/s 633 mmHg 73%
    06:00 0°C° 0 mm 3 m/s 633 mmHg 74%
    07:00 -1°C° 0 mm 3 m/s 633 mmHg 76%
    08:00 +1°C° 0 mm 3 m/s 633 mmHg 76%
    09:00 +2°C° 0 mm 3 m/s 633 mmHg 77%
    10:00 +3°C° 0 mm 3 m/s 633 mmHg 78%
    11:00 +4°C° 0 mm 3 m/s 633 mmHg 80%
    12:00 +4°C° 0 mm 3 m/s 633 mmHg 82%
    13:00 +5°C° 0 mm 4 m/s 633 mmHg 84%
    14:00 +4°C° 0 mm 3 m/s 632 mmHg 85%
    15:00 +4°C° 0 mm 3 m/s 632 mmHg 87%
    16:00 +3°C° 0 mm 3 m/s 632 mmHg 88%
    17:00 +2°C° 0 mm 3 m/s 632 mmHg 89%
    18:00 +3°C° 0 mm 2 m/s 633 mmHg 90%
    19:00 +2°C° 0 mm 2 m/s 633 mmHg 92%
    20:00 +2°C° 0,2 mm 2 m/s 634 mmHg 92%
    21:00 +2°C° 0,2 mm 2 m/s 634 mmHg 93%
    22:00 +1°C° 0,2 mm 2 m/s 634 mmHg 94%
    23:00 +1°C° 0,3 mm 2 m/s 634 mmHg 94%

    26 Noiembrie, Duminică

    Timp Temperatura Precipitaţii Vânt Presiune Umiditate
    00:00 +1°C° 0,3 mm 2 m/s 635 mmHg 95%
    01:00 +1°C° 0,3 mm 1 m/s 635 mmHg 95%
    02:00 +1°C° 0,2 mm 1 m/s 634 mmHg 95%
    03:00 +1°C° 0,2 mm 1 m/s 634 mmHg 95%
    04:00 +1°C° 0,2 mm 1 m/s 634 mmHg 95%
    05:00 0°C° 0,3 mm 1 m/s 635 mmHg 95%
    06:00 0°C° 0,3 mm 1 m/s 635 mmHg 95%
    07:00 0°C° 0,3 mm 1 m/s 635 mmHg 94%
    08:00 0°C° 0,2 mm 1 m/s 636 mmHg 92%
    09:00 +1°C° 0,2 mm 1 m/s 636 mmHg 91%
    10:00 -1°C° 0,2 mm 2 m/s 636 mmHg 89%
    11:00 -1°C° 0,2 mm 2 m/s 636 mmHg 87%
    12:00 -1°C° 0,2 mm 2 m/s 636 mmHg 86%
    13:00 -1°C° 0,2 mm 3 m/s 636 mmHg 84%
    14:00 -2°C° 0,2 mm 2 m/s 637 mmHg 85%
    15:00 -3°C° 0,2 mm 2 m/s 637 mmHg 86%
    16:00 -4°C° 0,2 mm 2 m/s 637 mmHg 88%
    17:00 -5°C° 0 mm 2 m/s 637 mmHg 88%
    18:00 -6°C° 0 mm 2 m/s 637 mmHg 89%
    19:00 -6°C° 0 mm 1 m/s 637 mmHg 90%
    20:00 -6°C° 0 mm 1 m/s 637 mmHg 87%
    21:00 -7°C° 0 mm 1 m/s 637 mmHg 84%
    22:00 -7°C° 0 mm 1 m/s 637 mmHg 80%
    23:00 -7°C° 0 mm 1 m/s 637 mmHg 74%
    Arată mai mult